PulseSat

PulseSat

BD-17

Last updated on March 26, 2019, 3:11 a.m. UTC

1 40549U 15019A   19084.43310039 -.00000183  00000-0  00000+0 0  9995
2 40549  53.6743 326.3750 0037189 188.3315 280.3863  1.00271284 14601
UTC
Height (km)
Latitude
Longitude
Inclination
Orbital Period

Next 30 passes for location: Hong Kong

Rise time Rise Azimuth (degrees) Set time Set Azimuth (degrees) Duration Max altitude (degrees)

No matching passes for this satellites

PulseSat

PulseSat is the new satellites software and hardware trackering solution by Pulsely.
Satellite Two Line Element Set source: US Air Force Space Command

Download PulseSat for iOS
© 2017 Pulsely Limited